Volver al catálogo

CZ-3C DEB

ActivoGTO
NORAD 48550·DEBRIS·🇨🇳 China

Lanzado Feb 24, 2012 desde Xichang Satellite Launch Center

Loading…

TLE

ObsoletoSource: Space-Track

Época: Sep 13, 2026, 23:36 UTC

1 48550U 12008AV  26256.98342718 -.00000089  00000-0  00000-0 0  9994
2 48550  20.0398 147.5221 6965081 340.7363   2.6769  2.24685621 91814

Sigue CZ-3C DEB en tiempo real con AllMySat

Download on the App Store